Location: Bjelajci
(45.0103°N, 16.1758°E)
Time: 18:48:36
(UTC+00:00)

Meteor 2-4 Rocket - Pass Details

Date: 14 July 2020
Orbit: 800 x 908 km, 81.2° (Epoch: 05 August)

Event Time Altitude Azimuth Distance (km) Brightness Sun altitude
Rises 00:14:23 0° 352° (N) 3,548 8.0 -21.3°
Reaches altitude 10° 00:16:55 10° 356° (N) 2,602 7.2 -21.2°
Maximum altitude 00:22:48 61° 76° (ENE) 1,020 4.2 -20.8°
Enters shadow 00:26:30 23° 150° (SSE) 1,813 5.1 -20.6°
